Volver al catálogo

STARLINK-37799

ActivoComunicacionesSSO
NORAD 69317·PAYLOAD·🇺🇸 United States

Lanzado May 30, 2026 desde Vandenberg Space Force Base

Loading…

Próximos Pases (próximas 24 horas)

TLE

ActualizadoSource: CelesTrak SupGP

Época: Sep 15, 2026, 03:06 UTC

1 69317C 26119X   26258.12965278 -.00040265  00000+0 -12500-2 0  2584
2 69317  97.2833 283.0083 0001280  87.5607 311.9485 15.33458383    13

Sigue STARLINK-37799 en tiempo real con AllMySat

Download on the App Store